Regional Weather Roundup
Issued by NWS

Home | Current Version | Previous Version | Text Only | Print | Product List | Glossary Off
Versions: 1 2 3 4 5 6 7 8 9 10 11 12 13 14 15 16 17 18 19 20 21 22 23 24 25 26 27 28 29 30 31 32 33 34 35 36 37 38 39 40 41 42 43 44 45 46 47 48 49 50

109
ASUS45 KTFX 240010
RWRMT
MONTANA REGIONAL WEATHER ROUNDUP
NATIONAL WEATHER SERVICE GREAT FALLS MT
600 PM MDT MON MAY 23 2016

NOTE: "FAIR" INDICATES FEW OR NO CLOUDS BELOW 12000 FEET WITH NO
SIGNIFICANT WEATHER AND/OR OBSTRUCTIONS TO VISIBILITY.

MTZ001>007-043-240100-
WEST OF THE DIVIDE

CITY           SKY/WX    TMP DP  RH WIND       PRES   REMARKS
KALISPELL      LGT RAIN  47  47 100 S14       29.82S
MISSOULA       LGT RAIN  48  41  76 CALM      29.89R
BUTTE          LGT RAIN  41  35  79 NW17      29.89R
MULLAN PASS    SNOW      34  34 100 VRB3      29.86R VSB 1/4
ANACONDA         N/A     43  36  75 W13G20    29.88S
DEER LODGE       N/A     43  37  81 N5        29.89R
EUREKA           N/A     50  43  76 SE12      29.81S
HAMILTON         N/A     48  37  66 NE7       29.87R
LIBBY            N/A     48  45  87 NW3       29.84S
PLAINS           N/A     53  39  59 S3        29.88R
$$

MTZ008-052>055-240100-
SOUTHWEST MONTANA

CITY           SKY/WX    TMP DP  RH WIND       PRES   REMARKS
BOZEMAN        CLOUDY    51  34  52 W9        29.86R
DILLON         CLOUDY    54  30  40 W12       29.83S
ENNIS          MOSUNNY   48  34  57 W10G17    29.91S
TWIN BRIDGES     N/A     51  30  44 N6        29.87R
$$

MTZ009-010-012-014-046-048-049-054-240100-
EAST SLOPES AND CENTRAL MONTANA

CITY           SKY/WX    TMP DP  RH WIND       PRES   REMARKS
CUT BANK       CLOUDY    46  39  76 N17       29.79R
GREAT FALLS    LGT RAIN  49  38  65 W15       29.80R
HELENA         CLOUDY    49  38  65 NW8       29.85R
CHOTEAU          N/A     46  43  87 E3        29.80R
$$

MTZ011-013-016-021-045-047-050-051-240100-
NORTH CENTRAL MONTANA

CITY           SKY/WX    TMP DP  RH WIND       PRES   REMARKS
HAVRE          SUNNY     55  42  61 NW20      29.73R
LEWISTOWN      CLOUDY    49  40  71 W9        29.80S
N BAR RANCH    LGT RAIN  46  39  76 NW10G17   29.82R
CHINOOK          N/A     55  43  62 W17       29.72R
$$

MTZ017>020-022>027-061-062-240100-
NORTHEAST MONTANA

CITY           SKY/WX    TMP DP  RH WIND       PRES   REMARKS
GLASGOW        CLOUDY    59  40  49 W23G29    29.68R
JORDAN           N/A     62  41  46 W15G21    29.72S
SIDNEY         MOSUNNY   66  37  34 W17       29.68S
WOLF POINT     PTSUNNY   65  43  44 SW18G25   29.69R
PLENTYWOOD       N/A     63  39  42 SW21G29   29.65S
POPLAR           N/A     63  39  42 W20       29.69S
SCOBEY           N/A     59  34  39 SW22      29.67R
$$

MTZ028>42-056>058-240100-
SOUTHCENTRAL AND SOUTHEAST MONTANA

CITY           SKY/WX    TMP DP  RH WIND       PRES   REMARKS
BAKER          SUNNY     67  33  28 NW12      29.73S
BILLINGS       CLOUDY    59  33  37 W18       29.79R
LIVINGSTON     MOSUNNY   52  32  46 W16       29.82S
MILES CITY     CLOUDY    67  30  25 SW22G31   29.73S
EKALAKA          N/A     65  30  27 NW12      29.76R
FORSYTH          N/A     64  30  27 W14G24    29.74F
$$

REGIONAL REPORTS...DAKOTAS

CITY           SKY/WX    TMP DP  RH WIND       PRES   REMARKS
WILLISTON      SUNNY     68  36  30 W16G31    29.67R
MINOT          PTSUNNY   78  31  17 SW15G22   29.63F
DICKINSON      PTSUNNY   66  38  35 W3        29.70F
BEACH            N/A     66  32  28 W18G25    29.74S
CROSBY           N/A     66  39  37 W24       29.67R
WATFORD CITY     N/A     68  36  30 W17G24    29.68R
BISMARCK       SUNNY     74  36  25 NW6       29.67S
GRAND FORKS    MOSUNNY   80  44  27 SW6       29.64F
FARGO          CLOUDY    74  48  39 NW15      29.67R
BUFFALO SD       N/A     72  33  24 NW14      29.64R
RAPID CITY     SUNNY     74  24  15 SW15G26   29.70F
$$

REGIONAL REPORTS...WYOMING/IDAHO/WASHINGTON

CITY           SKY/WX    TMP DP  RH WIND       PRES   REMARKS
GILLETTE       MOSUNNY   66  28  24 NW12      29.75S
SHERIDAN       PTSUNNY   62  33  33 N10       29.77R
BUFFALO WY     SUNNY     61  27  27 N10       29.79S
CODY           CLOUDY    55  27  33 W9G23     29.81R
YELLOWSTONE LA   N/A     42  26  53 W8        29.94F
IDAHO FALLS    MOSUNNY   63  26  24 SW20      29.85F
SALMON         CLOUDY    57  30  35 NW12      29.81S
BOISE          MOSUNNY   68  31  25 SW6       29.81F
SPOKANE        LGT RAIN  55  42  61 SW8       29.84R
$$

REGIONAL REPORTS...ALBERTA

CITY           SKY/WX    TMP DP  RH WIND       PRES   REMARKS
EDMONTON       CLOUDY    48  43  81 CALM      29.77S
CALGARY        CLOUDY    46  37  71 NW17      29.79R
LETHBRIDGE     PTSUNNY   48  41  76 NW15      29.79R
MEDICINE HAT   PTSUNNY   54  45  71 W16       29.71R
WATERTON GATE    N/A     41  37  87 N5          N/A
$$

REGIONAL REPORTS...SASKATCHEWAN

CITY           SKY/WX    TMP DP  RH WIND       PRES   REMARKS
SWIFT CURRENT  CLOUDY    48  45  87 W13       29.57S
REGINA         LGT RAIN  54  45  71 W16G23    29.59R
SASKATOON      PTSUNNY   61  39  44 E10G17    29.60R
VAL MARIE        N/A     54  41  62 W24G31      N/A
ROCKGLEN         N/A     50  45  81 W18G24      N/A
ASSINIBOIA       N/A     50  46  87 N12         N/A
$$




USA.gov is the U.S. government's official web portal to all federal, state and local government web resources and services.